sat.trackr.live / text

‹ back to catalog

STARLINK-36105

NORAD 66850 · 2025-281C

PAYLOAD ACTIVE UNKNOWN

§ Identity

Operator
Country
US
Launch date
2025-12-02
Launch site
AFETR
Launch vehicle
Mass (kg)
RCS (m²)

Purposes: comms

External: N2YO · Heavens-Above · Gunter

§ Orbital elements

Epoch: 2026-05-25T01:26:21.642144Z

Period
94.27 min
Inclination
42.9980°
Eccentricity
0.0001801
Mean motion
15.27586939 rev/d
Perigee alt
481.8 km
Apogee alt
484.3 km
Semi-major
6,861.2 km
B*
6.6880e-4
RAAN
272.3289°
Arg perigee
276.4829°
Mean anomaly
83.5817°
Rev number
2,786

§ Raw data

STARLINK-361051 66850U 25281C   26145.05997271  .00018191  00000+0  66880-3 0  99912 66850  42.9980 272.3289 0001801 276.4829  83.5817 15.27586939 27860

JSON: /api/v1/satellites/66850 · /tle

For live sub-satellite position, see the globe view (requires WebGL).

§ Visibility from observer

Set your observer location to see the next 7 days of passes ≥ 10°. The values pass through the URL so the page stays shareable.

No JS? Fill the form by hand. The geolocation button needs JavaScript.